• In Czech Republic
  • List of Countries
  • For 7 days
  • Water Temperature
  • Satellite Maps
  • Weather Map
  • Weather Widgets
  • user-avatar
    Login

    Hourly Weather Aktau

    Today, 25 September, Tuesday

    Time Temperature Precipitation Wind Pressure Humidity
    00:00 +23°C° 0 mm 1 mps 761 mmHg 68%
    01:00 +23°C° 0 mm 1 mps 761 mmHg 70%
    02:00 +22°C° 0 mm 1 mps 761 mmHg 71%
    03:00 +22°C° 0 mm 1 mps 760 mmHg 72%
    04:00 +21°C° 0 mm 2 mps 760 mmHg 70%
    05:00 +21°C° 0 mm 2 mps 760 mmHg 68%
    06:00 +21°C° 0 mm 3 mps 760 mmHg 66%
    07:00 +24°C° 0 mm 3 mps 760 mmHg 58%
    08:00 +25°C° 0 mm 4 mps 760 mmHg 50%
    09:00 +27°C° 0 mm 4 mps 760 mmHg 42%
    10:00 +28°C° 0 mm 5 mps 760 mmHg 37%
    11:00 +29°C° 0 mm 6 mps 759 mmHg 32%
    12:00 +32°C° 0 mm 6 mps 759 mmHg 27%
    13:00 +32°C° 0 mm 6 mps 759 mmHg 26%
    14:00 +32°C° 0 mm 6 mps 759 mmHg 24%
    15:00 +32°C° 0 mm 6 mps 758 mmHg 23%
    16:00 +30°C° 0 mm 5 mps 758 mmHg 25%
    17:00 +29°C° 0 mm 4 mps 758 mmHg 27%
    18:00 +28°C° 0 mm 3 mps 758 mmHg 28%
    19:00 +27°C° 0 mm 3 mps 758 mmHg 31%
    20:00 +27°C° 0 mm 3 mps 759 mmHg 33%
    21:00 +26°C° 0 mm 2 mps 759 mmHg 35%
    22:00 +26°C° 0 mm 2 mps 759 mmHg 35%
    23:00 +25°C° 0 mm 3 mps 759 mmHg 35%

    Tomorrow, 26 September, Wednesday

    Time Temperature Precipitation Wind Pressure Humidity
    00:00 +25°C° 0 mm 3 mps 759 mmHg 35%
    01:00 +25°C° 0 mm 3 mps 759 mmHg 33%
    02:00 +24°C° 0 mm 3 mps 759 mmHg 31%
    03:00 +23°C° 0 mm 4 mps 759 mmHg 29%
    04:00 +23°C° 0 mm 4 mps 759 mmHg 29%
    05:00 +23°C° 0 mm 4 mps 759 mmHg 29%
    06:00 +22°C° 0 mm 4 mps 759 mmHg 28%
    07:00 +25°C° 0 mm 4 mps 760 mmHg 25%
    08:00 +27°C° 0 mm 4 mps 760 mmHg 22%
    09:00 +29°C° 0 mm 4 mps 760 mmHg 19%
    10:00 +29°C° 0 mm 3 mps 760 mmHg 19%
    11:00 +30°C° 0 mm 3 mps 760 mmHg 19%
    12:00 +31°C° 0 mm 2 mps 760 mmHg 19%
    13:00 +31°C° 0 mm 3 mps 761 mmHg 20%
    14:00 +32°C° 0 mm 4 mps 761 mmHg 21%
    15:00 +32°C° 0 mm 4 mps 761 mmHg 21%
    16:00 +30°C° 0 mm 6 mps 761 mmHg 28%
    17:00 +28°C° 0 mm 7 mps 761 mmHg 35%
    18:00 +27°C° 0 mm 9 mps 762 mmHg 41%
    19:00 +26°C° 0 mm 9 mps 762 mmHg 47%
    20:00 +23°C° 0 mm 10 mps 762 mmHg 53%
    21:00 +22°C° 0 mm 10 mps 763 mmHg 59%
    22:00 +22°C° 0 mm 10 mps 763 mmHg 62%
    23:00 +21°C° 0 mm 10 mps 763 mmHg 64%

    Day after tomorrow, 27 September, Thursday

    Time Temperature Precipitation Wind Pressure Humidity
    00:00 +19°C° 0 mm 9 mps 763 mmHg 66%
    01:00 +19°C° 0 mm 9 mps 763 mmHg 68%
    02:00 +18°C° 0 mm 10 mps 763 mmHg 70%
    03:00 +18°C° 0 mm 10 mps 763 mmHg 72%
    04:00 +17°C° 0 mm 10 mps 763 mmHg 73%
    05:00 +17°C° 0 mm 9 mps 763 mmHg 74%
    06:00 +17°C° 0 mm 9 mps 763 mmHg 75%
    07:00 +18°C° 0 mm 9 mps 764 mmHg 70%
    08:00 +19°C° 0 mm 9 mps 764 mmHg 64%
    09:00 +21°C° 0 mm 9 mps 764 mmHg 59%
    10:00 +22°C° 0 mm 9 mps 764 mmHg 55%
    11:00 +23°C° 0 mm 9 mps 764 mmHg 51%
    12:00 +24°C° 0 mm 9 mps 764 mmHg 47%
    13:00 +24°C° 0 mm 9 mps 764 mmHg 47%
    14:00 +23°C° 0 mm 9 mps 764 mmHg 46%
    15:00 +23°C° 0 mm 9 mps 764 mmHg 46%
    16:00 +22°C° 0 mm 9 mps 764 mmHg 47%
    17:00 +21°C° 0 mm 9 mps 764 mmHg 47%
    18:00 +20°C° 0 mm 8 mps 765 mmHg 48%
    19:00 +20°C° 0 mm 8 mps 765 mmHg 49%
    20:00 +18°C° 0 mm 8 mps 765 mmHg 50%
    21:00 +17°C° 0 mm 8 mps 766 mmHg 51%
    22:00 +17°C° 0 mm 7 mps 766 mmHg 53%
    23:00 +16°C° 0 mm 7 mps 766 mmHg 55%

    28 September, Friday

    Time Temperature Precipitation Wind Pressure Humidity
    00:00 +16°C° 0 mm 7 mps 765 mmHg 57%
    01:00 +16°C° 0 mm 6 mps 766 mmHg 58%
    02:00 +16°C° 0 mm 6 mps 766 mmHg 58%
    03:00 +15°C° 0 mm 5 mps 766 mmHg 59%
    04:00 +15°C° 0 mm 5 mps 766 mmHg 59%
    05:00 +15°C° 0 mm 4 mps 766 mmHg 59%
    06:00 +15°C° 0 mm 4 mps 766 mmHg 59%
    07:00 +17°C° 0 mm 4 mps 766 mmHg 53%
    08:00 +18°C° 0 mm 4 mps 767 mmHg 47%
    09:00 +19°C° 0 mm 3 mps 767 mmHg 41%
    10:00 +20°C° 0 mm 3 mps 767 mmHg 37%
    11:00 +21°C° 0 mm 2 mps 767 mmHg 33%
    12:00 +23°C° 0 mm 2 mps 767 mmHg 29%
    13:00 +23°C° 0 mm 2 mps 766 mmHg 28%
    14:00 +24°C° 0 mm 2 mps 766 mmHg 27%
    15:00 +24°C° 0 mm 1 mps 766 mmHg 26%
    16:00 +24°C° 0 mm 1 mps 766 mmHg 26%
    17:00 +24°C° 0 mm 1 mps 765 mmHg 27%
    18:00 +23°C° 0 mm 1 mps 765 mmHg 27%
    19:00 +23°C° 0 mm 2 mps 765 mmHg 27%
    20:00 +21°C° 0 mm 2 mps 765 mmHg 27%
    21:00 +21°C° 0 mm 3 mps 765 mmHg 28%
    22:00 +21°C° 0 mm 3 mps 765 mmHg 28%
    23:00 +20°C° 0 mm 4 mps 764 mmHg 28%

    29 September, Saturday

    Time Temperature Precipitation Wind Pressure Humidity
    00:00 +20°C° 0 mm 5 mps 764 mmHg 29%
    01:00 +19°C° 0 mm 5 mps 764 mmHg 28%
    02:00 +19°C° 0 mm 5 mps 763 mmHg 28%
    03:00 +19°C° 0 mm 6 mps 763 mmHg 28%
    04:00 +19°C° 0 mm 6 mps 763 mmHg 27%
    05:00 +19°C° 0 mm 6 mps 763 mmHg 26%
    06:00 +17°C° 0 mm 6 mps 763 mmHg 25%
    07:00 +20°C° 0 mm 7 mps 763 mmHg 23%
    08:00 +22°C° 0 mm 7 mps 763 mmHg 21%
    09:00 +24°C° 0 mm 7 mps 763 mmHg 19%
    10:00 +26°C° 0 mm 7 mps 763 mmHg 19%
    11:00 +27°C° 0 mm 7 mps 762 mmHg 19%
    12:00 +29°C° 0 mm 6 mps 762 mmHg 19%
    13:00 +29°C° 0 mm 6 mps 761 mmHg 20%
    14:00 +29°C° 0 mm 6 mps 761 mmHg 21%
    15:00 +30°C° 0 mm 6 mps 761 mmHg 21%
    16:00 +29°C° 0 mm 5 mps 761 mmHg 23%
    17:00 +28°C° 0 mm 4 mps 760 mmHg 26%
    18:00 +27°C° 0 mm 3 mps 760 mmHg 28%
    19:00 +26°C° 0 mm 4 mps 760 mmHg 27%
    20:00 +26°C° 0 mm 4 mps 760 mmHg 27%
    21:00 +26°C° 0 mm 4 mps 760 mmHg 26%
    22:00 +25°C° 0 mm 5 mps 760 mmHg 26%
    23:00 +25°C° 0 mm 5 mps 760 mmHg 26%

    30 September, Sunday

    Time Temperature Precipitation Wind Pressure Humidity
    00:00 +24°C° 0 mm 6 mps 759 mmHg 25%
    01:00 +23°C° 0 mm 6 mps 759 mmHg 27%
    02:00 +23°C° 0 mm 6 mps 759 mmHg 29%
    03:00 +23°C° 0 mm 6 mps 759 mmHg 31%
    04:00 +23°C° 0 mm 6 mps 759 mmHg 33%
    05:00 +22°C° 0 mm 7 mps 759 mmHg 35%
    06:00 +22°C° 0 mm 7 mps 759 mmHg 38%
    07:00 +24°C° 0 mm 7 mps 759 mmHg 35%
    08:00 +27°C° 0 mm 7 mps 759 mmHg 32%
    09:00 +29°C° 0 mm 8 mps 759 mmHg 29%
    10:00 +30°C° 0 mm 7 mps 758 mmHg 28%
    11:00 +32°C° 0 mm 7 mps 758 mmHg 26%
    12:00 +34°C° 0 mm 7 mps 758 mmHg 24%
    13:00 +34°C° 0 mm 7 mps 757 mmHg 24%
    14:00 +34°C° 0 mm 6 mps 757 mmHg 24%
    15:00 +34°C° 0 mm 6 mps 757 mmHg 23%
    16:00 +33°C° 0 mm 5 mps 757 mmHg 26%
    17:00 +32°C° 0 mm 4 mps 757 mmHg 29%
    18:00 +29°C° 0 mm 2 mps 757 mmHg 32%
    19:00 +29°C° 0 mm 2 mps 757 mmHg 34%
    20:00 +28°C° 0 mm 2 mps 757 mmHg 37%
    21:00 +27°C° 0 mm 2 mps 757 mmHg 39%
    22:00 +27°C° 0 mm 2 mps 757 mmHg 38%
    23:00 +27°C° 0 mm 3 mps 756 mmHg 36%
    Show more